Cincinnati, OH

9:16 PM EST on December 03, 2016 (GMT -0500)
Cincinnati Municipal-Lunken

Weather History for KLUK - June, 2013

Change the Weather History Date:

Wednesday, June 5, 2013

  Actual Average Record
Temperature  
Mean Temperature 67 °F -  
Max Temperature 82 °F 80 °F 92 °F (1958)
Min Temperature 52 °F 59 °F 45 °F (2003)
Cooling Degree Days 2    
Growing Degree Days 17 (Base 50)    
Moisture  
Dew Point 57 °F    
Average Humidity 73    
Maximum Humidity 97    
Minimum Humidity 45    
Precipitation  
Precipitation 0.00 in - - ()
Sea Level Pressure  
Sea Level Pressure 29.99 in    
Wind  
Wind Speed 1 mph (ENE)    
Max Wind Speed 9 mph    
Max Gust Speed -    
Visibility 10 miles    
Events      
Averages and records for this station are not official NWS values.
T = Trace of Precipitation, MM = Missing Value Source: NWS Daily Summary

Daily Weather History Graph

Daily Weather History Graph

Search for Another Location

Airport or City:

Trip Planner

Search our weather history database for the weather conditions in past years. The results will help you decide how hot, cold, wet, or windy it might be!

Date:

Astronomy

Jun. 05, 2013 Rise Set
Actual Time 6:12 AM EDT 9:00 PM EDT
Civil Twilight 5:40 AM EDT 9:32 PM EDT
Nautical Twilight 5:00 AM EDT 10:12 PM EDT
Astronomical Twilight 4:15 AM EDT 10:58 PM EDT
Moon 4:14 AM EDT (6/5) 6:27 PM EDT (6/5)
Length of Visible Light 15h 51m
Length of Day
14h 48m
Waning Crescent, 8% of the Moon is Illuminated
Jun 5
Waning Crescent
Jun 8
New
Jun 16
First Quarter
Jun 23
Full
Jun 30
Last Quarter

Hourly Weather History & Observations

Time (EDT) Temp. Heat Index Dew Point Humidity Pressure Visibility Wind Dir Wind Speed Gust Speed Precip Events Conditions
12:53 AM 54.0 °F - 51.1 °F 90% 30.10 in 10.0 mi Calm Calm - N/A   Clear
1:53 AM 52.0 °F - 51.1 °F 97% 30.10 in 10.0 mi Calm Calm - N/A   Clear
2:53 AM 55.0 °F - 53.1 °F 93% 30.08 in 10.0 mi Calm Calm - N/A   Clear
3:53 AM 54.0 °F - 52.0 °F 93% 30.07 in 10.0 mi Calm Calm - N/A   Clear
4:53 AM 53.1 °F - 52.0 °F 96% 30.08 in 10.0 mi Calm Calm - N/A   Clear
5:53 AM 53.1 °F - 52.0 °F 96% 30.06 in 10.0 mi Calm Calm - N/A   Clear
6:53 AM 53.1 °F - 52.0 °F 96% 30.08 in 10.0 mi Calm Calm - N/A   Clear
7:53 AM 59.0 °F - 53.1 °F 81% 30.06 in 10.0 mi ENE 3.5 mph - N/A   Clear
8:53 AM 63.0 °F - 53.1 °F 70% 30.07 in 10.0 mi NE 4.6 mph - N/A   Clear
9:53 AM 68.0 °F - 55.0 °F 63% 30.05 in 10.0 mi NE 5.8 mph - N/A   Clear
10:53 AM 72.0 °F - 54.0 °F 53% 30.02 in 10.0 mi NE 5.8 mph - N/A   Clear
11:53 AM 75.9 °F - 55.0 °F 48% 30.00 in 10.0 mi Variable 3.5 mph - N/A   Clear
12:53 PM 78.1 °F - 57.0 °F 48% 30.00 in 10.0 mi NW 3.5 mph - N/A   Scattered Clouds
1:53 PM 79.0 °F - 57.0 °F 47% 29.98 in 10.0 mi Variable 3.5 mph - N/A   Clear
2:53 PM 81.0 °F 81.3 °F 59.0 °F 47% 29.96 in 10.0 mi Calm Calm - N/A   Mostly Cloudy
3:53 PM 81.0 °F 81.6 °F 60.1 °F 49% 29.93 in 10.0 mi ESE 4.6 mph - N/A   Partly Cloudy
4:53 PM 82.0 °F 82.1 °F 59.0 °F 45% 29.91 in 10.0 mi East 6.9 mph - N/A   Clear
5:53 PM 80.1 °F 81.1 °F 61.0 °F 52% 29.89 in 10.0 mi Calm Calm - N/A   Overcast
6:53 PM 77.0 °F - 66.9 °F 71% 29.87 in 10.0 mi Calm Calm - N/A   Overcast
7:53 PM 73.0 °F - 64.0 °F 73% 29.88 in 10.0 mi Calm Calm - N/A   Overcast
8:53 PM 70.0 °F - 64.0 °F 81% 29.87 in 10.0 mi Calm Calm - N/A   Overcast
9:53 PM 69.1 °F - 64.0 °F 84% 29.88 in 10.0 mi South 9.2 mph - N/A   Mostly Cloudy
10:53 PM 69.1 °F - 64.0 °F 84% 29.89 in 10.0 mi Calm Calm - N/A   Mostly Cloudy
11:53 PM 66.0 °F - 64.0 °F 93% 29.88 in 10.0 mi Calm Calm - N/A   Scattered Clouds